Regional Weather Roundup
Issued by NWS

Home | Current Version | Previous Version | Text Only | Print | Product List | Glossary Off
Versions: 1 2 3 4 5 6 7 8 9 10 11 12 13 14 15 16 17 18 19 20 21 22 23 24 25 26 27 28 29 30 31 32 33 34 35 36 37 38 39 40 41 42 43 44 45 46 47 48 49 50

240
ASUS45 KBOU 311307
RWRCO

WEATHER ROUNDUP FOR COLORADO
NATIONAL WEATHER SERVICE DENVER/BOULDER CO
700 AM MDT TUE MAY 31 2016

NOTE: "FAIR" INDICATES FEW OR NO CLOUDS BELOW 12000 FEET WITH NO
SIGNIFICANT WEATHER AND/OR OBSTRUCTIONS TO VISIBILITY.

COZ001>005-013-030-031-311400-
...NORTHWEST COLORADO...

CITY           SKY/WX    TMP DP  RH WIND       PRES   REMARKS
CRAIG          FAIR      40  36  86 CALM      30.16R
HAYDEN         FAIR      45  36  70 E6        30.15S
MEEKER         FAIR      42  35  76 CALM      30.16R
MOUNT WERNER   NOT AVBL
STEAMBOAT SPGS FAIR      40  34  81 CALM      30.16S
WALDEN         NOT AVBL
$$

COZ006>008-011-311400-
...WEST CENTRAL VALLEYS...

CITY           SKY/WX    TMP DP  RH WIND       PRES   REMARKS
GRAND JUNCTION FAIR      54  36  50 SE7       30.05R
MONTROSE       FAIR      45  33  63 S8        30.12R
EAGLE          SUNNY     37  34  87 CALM      30.21R
RIFLE          FAIR      44  35  70 E3        30.12S
DELTA          FAIR      53  33  47 CALM      30.09R
NUCLA          FAIR      46  32  57 CALM      30.11S
$$

COZ017>023-064>068-311400-
...SOUTHWEST COLORADO...

CITY           SKY/WX    TMP DP  RH WIND       PRES   REMARKS
DURANGO        FAIR      44  28  53 CALM      30.09R
CORTEZ         FAIR      43  28  55 E6        30.06S
PAGOSA SPRINGS FAIR      44  31  62 CALM      30.16R
TELLURIDE      FAIR      41  26  55 SE6       30.25R
WOLF CREEK PAS FAIR      37  19  48 NE10      30.40R
$$

COZ009-010-012-014-032>034-037-058>063-311400-
...CENTRAL COLORADO...

CITY           SKY/WX    TMP DP  RH WIND       PRES   REMARKS
ASPEN          FAIR      40  31  70 CALM      30.18F
BUENA VISTA    FAIR      42  29  60 W6        30.23S
COPPER MTN     NOT AVBL
BERTHOUD PASS  FAIR      30  21  69 SW7       30.38S WCI  23
COTTONWOOD PAS FAIR      45  27  49 CALM      30.29S
GUNNISON       FAIR      36  28  75 CALM      30.26R
KREMMLING      CLOUDY    34  32  93 CALM      30.22S FOG
LEADVILLE      FAIR      33  25  72 CALM      30.27S
MONARCH PASS   FAIR      36  25  64 E10G18    30.48R
SALIDA         FAIR      42  32  69 CALM      30.29S
SUNLIGHT       FAIR      41  30  65 CALM      30.34S
WILKERSON PASS FAIR      36  28  75 CALM      30.37S
$$

COZ069>075-311400-
...SAN LUIS VALLEY/SANGRE DE CRISTO MOUNTAINS...

CITY           SKY/WX    TMP DP  RH WIND       PRES   REMARKS
ALAMOSA        FAIR      41  33  73 CALM      30.16R
LA VETA PASS   FAIR      41  32  70 NE14      30.30R
SAGUACHE       NOT AVBL
$$

COZ035-036-038>040-311400-
...NORTHERN COLORADO FRONT RANGE...

CITY           SKY/WX    TMP DP  RH WIND       PRES   REMARKS
DENVER INTL AP CLOUDY    47  41  80 NE3       30.18S
DMNS CITY PARK   N/A     49  40  71 E10       30.18S
AURORA         CLOUDY    46  44  91 E2        30.20R
FRONT RANGE AP CLOUDY    45  43  93 N3        30.20
ERIE MUNI ARPT CLOUDY    49  38  67 E6        30.18S
BOULDER MUN AP CLOUDY    50  37  62 E3        30.18R
CENTENNIAL     PTSUNNY   48  40  73 E3        30.19S
BROOMFIELD     PTSUNNY   48  39  71 E6        30.19S
FORT COLLINS   PTSUNNY   52  37  58 SE5       30.18S
LONGMONT       CLOUDY    53  39  60 E8        30.19S
$$

COZ041-046-047-076>085-087-088-311400-
...PIKES PEAK/PALMER DIVIDE AND SOUTHERN FOOTHILLS...

CITY           SKY/WX    TMP DP  RH WIND       PRES   REMARKS
COLO. SPRINGS  FAIR      50  42  74 N14       30.19R
A. F. ACADEMY  FAIR      46  43  87 N15       30.20R
SCHRIEVER AFB  NOT AVBL
ELLICOTT       NOT AVBL
FALCON         PTSUNNY   44  42  91 N9        30.22R
FORT CARSON    FAIR      51  43  75 N15       30.16R
LIMON          CLOUDY    47  45  93 NW13      30.18R
MONUMENT HILL  FOG       41  41 100 N5        30.24R VSB 1
TRINIDAD       FAIR      50  40  68 W9        30.13R
$$

COZ042>045-048>051-090-091-311400-
...NORTHEAST COLORADO...

CITY           SKY/WX    TMP DP  RH WIND       PRES   REMARKS
GREELEY ARPT   CLOUDY    52  39  62 W3        30.18R
AKRON          CLOUDY    50  47  89 NW6       30.16R
BURLINGTON     FAIR      54  49  83 N10       30.13R
WRAY           NOT AVBL
STERLING       CLOUDY    50  45  81 W5        30.14R
HOLYOKE        FAIR      54  46  76 NW6       30.13
FORT MORGAN    CLOUDY    50  41  70 CALM      30.17R
$$

COZ086-089-092>099-311400-
...SOUTHEAST COLORADO...

CITY           SKY/WX    TMP DP  RH WIND       PRES   REMARKS
PUEBLO         FAIR      58  47  66 N28G38    30.09R
LA JUNTA       FAIR      58  48  69 N12       30.08R
LAMAR          CLOUDY    59  49  69 E12       30.06R
SPRINGFIELD      N/A     55  54  96 N13       30.07R
$$




USA.gov is the U.S. government's official web portal to all federal, state and local government web resources and services.